User: anonymous   Login
Location: Unspecified
(52.2500°N, 0.0000°E)
Time: 05:36:43
(UTC+00:00)
Language:

SL-24 R/B - Orbit

View from above orbital plane
View from above orbital plane
View from above satellite
View from above satellite

Ground track
Ground track

The orbit is defined by the following mean orbital elements,

1 33319U          26088.20279881 +.00000000 +00000-0 +57542-4 0 00000
2 33319  97.9423 307.7194 0492501 229.0186 249.5878 13.75788898    02
Epoch (UTC): 29 March 2026 04:52:01
Eccentricity: 0.0492501
inclination: 97.9423°
perigee height: 617 km
apogee height: 1341 km
right ascension of ascending node: 307.7194°
argument of perigee: 229.0186°
revolutions per day: 13.75788898
mean anomaly at epoch: 249.5878°

The dashed part of the orbit path shows where the satellite is in the earth's shadow,  

DLR